TimePDT,TemperatureF,Dew PointF,Humidity,Sea Level PressureIn,VisibilityMPH,Wind Direction,Wind SpeedMPH,Gust SpeedMPH,PrecipitationIn,Events,Conditions,WindDirDegrees,DateUTC
12:53 AM,48.0,37.0,66,30.21,10.0,West,3.5,-,N/A,,Clear,280,2013-05-04 07:53:00
1:53 AM,46.9,37.0,68,30.22,10.0,Calm,Calm,-,N/A,,Clear,0,2013-05-04 08:53:00
2:53 AM,50.0,37.0,61,30.21,10.0,Calm,Calm,-,N/A,,Clear,0,2013-05-04 09:53:00
3:37 AM,60.8,32.0,34,30.22,10.0,NNE,15.0,-,N/A,,Clear,30,2013-05-04 10:37:00
3:53 AM,59.0,32.0,36,30.20,10.0,North,9.2,-,N/A,,Scattered Clouds,10,2013-05-04 10:53:00
4:53 AM,59.0,30.9,35,30.21,10.0,NNW,3.5,-,N/A,,Overcast,330,2013-05-04 11:53:00
5:53 AM,50.0,37.0,61,30.23,10.0,NE,3.5,-,N/A,,Overcast,40,2013-05-04 12:53:00
6:53 AM,52.0,36.0,54,30.23,10.0,SW,3.5,-,N/A,,Overcast,230,2013-05-04 13:53:00
7:53 AM,62.1,39.0,43,30.24,10.0,West,4.6,-,N/A,,Overcast,260,2013-05-04 14:53:00
8:53 AM,64.9,39.0,39,30.23,10.0,Calm,Calm,-,N/A,,Mostly Cloudy,0,2013-05-04 15:53:00
9:53 AM,70.0,32.0,25,30.23,10.0,East,11.5,18.4,N/A,,Overcast,90,2013-05-04 16:53:00
10:53 AM,73.0,30.9,21,30.22,10.0,ESE,13.8,21.9,N/A,,Clear,120,2013-05-04 17:53:00
11:53 AM,75.0,32.0,21,30.20,10.0,ENE,8.1,20.7,N/A,,Clear,70,2013-05-04 18:53:00
12:53 PM,77.0,34.0,21,30.17,10.0,East,15.0,19.6,N/A,,Partly Cloudy,90,2013-05-04 19:53:00
1:21 PM,78.8,33.8,20,30.17,10.0,Variable,6.9,16.1,N/A,,Clear,0,2013-05-04 20:21:00
1:53 PM,79.0,34.0,20,30.14,10.0,NE,15.0,20.7,N/A,,Clear,40,2013-05-04 20:53:00
2:53 PM,79.0,32.0,18,30.11,10.0,NE,16.1,20.7,N/A,,Clear,40,2013-05-04 21:53:00
3:53 PM,79.0,30.9,17,30.08,10.0,East,9.2,23.0,N/A,,Clear,90,2013-05-04 22:53:00
4:53 PM,79.0,32.0,18,30.06,10.0,NE,13.8,19.6,N/A,,Clear,50,2013-05-04 23:53:00
5:53 PM,78.1,32.0,19,30.05,10.0,NNE,11.5,-,N/A,,Clear,30,2013-05-05 00:53:00
6:53 PM,75.9,34.0,22,30.04,10.0,NNE,13.8,-,N/A,,Clear,30,2013-05-05 01:53:00
7:53 PM,69.1,36.0,30,30.03,10.0,NNE,6.9,-,N/A,,Clear,30,2013-05-05 02:53:00
8:53 PM,62.1,36.0,38,30.04,10.0,ENE,5.8,-,N/A,,Clear,70,2013-05-05 03:53:00
9:53 PM,57.9,36.0,44,30.04,10.0,East,8.1,-,N/A,,Clear,90,2013-05-05 04:53:00
10:53 PM,55.9,35.1,45,30.04,10.0,NE,8.1,-,N/A,,Clear,50,2013-05-05 05:53:00
11:53 PM,50.0,35.1,57,30.04,10.0,NNW,4.6,-,N/A,,Clear,330,2013-05-05 06:53:00